STARLINK-30101 (56301 NORAD) Tracking and Keplerian Element Data

This shows tracking and keplerian element data for the satellite.

Feedback or suggestion? Click here.




ElementValue
Catalog56301
NameSTARLINK-30101
Epoch Orbit324
Epoch Day127.25001157
Epoch Year2023
RAAN97.7419
Inclination43.0031
Eccentricity0.0001373
Argument of Perigee269.7334
Mean Anonmoly127.2982
Mean Motion15.40426177
Decay Rate-0.0119315
L11 56301U 23056R 23127.25001157 -.01193150 00000+0 -31698-1 0 9996
L22 56301 43.0031 97.7419 0001373 269.7334 127.2982 15.40426177 3240



Live tracking and technical data element details for STARLINK-30101 (NORAD 56301). STARLINK-30101 can be tracked NOW for your location showing map with azimuth and elevation plus other details from your city location.







IsCatalogInMostPopularTable: catalog: 56301, numindb: 2
Update: records affected: 1



GetName: 56301 STARLINK-30101

Hit Count: updated at: Sat, 03 Jun 2023 17:09:18 GMT